Regional Weather Roundup
Issued by NWS

Home | Current Version | Previous Version | Text Only | Print | Product List | Glossary Off
Versions: 1 2 3 4 5 6 7 8 9 10 11 12 13 14 15 16 17 18 19 20 21 22 23 24 25 26 27 28 29 30 31 32 33 34 35 36 37 38 39 40 41 42 43 44 45 46 47 48 49 50

000
ASUS43 KBIS 012002
RWRND

NORTH DAKOTA REGIONAL WEATHER ROUNDUP
NATIONAL WEATHER SERVICE BISMARCK ND
300 PM CDT SUN MAY 01 2016

NOTE: "FAIR" INDICATES FEW OR NO CLOUDS BELOW 12,000 FEET WITH NO
SIGNIFICANT WEATHER AND/OR OBSTRUCTIONS TO VISIBILITY.


NDZ001>003-009>011-017-012100-
NORTHWEST NORTH DAKOTA

CITY           SKY/WX    TMP DP  RH WIND       PRES   REMARKS
WILLISTON      SUNNY     64  27  24 VRB3      30.24F
MINOT          SUNNY     67  23  19 VRB3      30.23F
MINOT AFB      SUNNY     62  28  27 VRB1      30.21F
$$

NDZ018>021-031>035-040>046-012100-
SOUTHWEST NORTH DAKOTA

CITY           SKY/WX    TMP DP  RH WIND       PRES   REMARKS
BISMARCK       SUNNY     63  29  27 MISG      30.25F
DICKINSON      SUNNY     60  27  28 VRB6      30.23F
GARRISON         N/A     61  27  27 S12G18    30.24F
HETTINGER ARPT MOSUNNY   60  29  30 N8        30.26F
$$

NDZ004>008-012>016-024-026-027-054-012100-
NORTHEAST NORTH DAKOTA

CITY           SKY/WX    TMP DP  RH WIND       PRES   REMARKS
GRAND FORKS    SUNNY     64  29  26 VRB6      30.20F
GRND FRKS AFB  SUNNY     62  26  25 VRB2      30.21F
DEVILS LAKE    SUNNY     60  28  29 S13       30.22F
$$

NDZ022-023-025-028>030-036>039-047>053-012100-
SOUTHEAST NORTH DAKOTA

CITY           SKY/WX    TMP DP  RH WIND       PRES   REMARKS
FARGO          SUNNY     66  28  24 N15       30.19F
JAMESTOWN      SUNNY     61  29  29 N10       30.21F
$$




USA.gov is the U.S. government's official web portal to all federal, state and local government web resources and services.